Simultaneous Nadir Overpasses (SNOs) Predictions

Prediction of SNOs between NOAA-19 and METOP-C Satellite Orbit:

Table of predicted SNOs for the next 14.0 days since TLE Epoch: 1/15/2022
Index Date (NOAA-19) Time (NOAA-19) Lat,Lon (NOAA-19) SZA (NOAA-19 ) Date (METOP-C) Time (METOP-C) Lat,Lon (METOP-C) SZA (METOP-C ) Distance(km) Time Diff (sec)
1 01/26/2022 01:30:16 80.74,-170.68 100.54 01/26/2022 01:31:11 80.75,-170.63 100.57 1.51 55
2 01/26/2022 02:21:13 -80.74, -3.56 79.48 01/26/2022 02:21:53 -80.73, -3.58 79.48 1.02 40
3 01/26/2022 03:12:16 80.74, 163.87 100.53 01/26/2022 03:12:33 80.74, 163.88 100.54 0.54 17
4 01/26/2022 04:03:13 -80.74, -29.02 79.49 01/26/2022 04:03:15 -80.73, -29.06 79.51 1.93 2
5 01/26/2022 04:54:16 80.74, 138.42 100.51 01/26/2022 04:53:55 80.73, 138.40 100.50 0.44 21
6 01/26/2022 05:45:12 -80.73, -54.11 79.49 01/26/2022 05:44:36 -80.74, -54.19 79.50 1.65 36
7 01/26/2022 06:36:16 80.73, 112.96 100.50 01/26/2022 06:35:17 80.72, 112.92 100.46 1.42 59



Historial Predications of SNOs between NOAA-19 and METOP-C
